TimeEDT,TemperatureF,Dew PointF,Humidity,Sea Level PressureIn,VisibilityMPH,Wind Direction,Wind SpeedMPH,Gust SpeedMPH,PrecipitationIn,Events,Conditions,WindDirDegrees,DateUTC
12:53 AM,75.9,72.0,87,30.02,7.0,SW,4.6,-,N/A,,Clear,230,2013-09-12 04:53:00
1:53 AM,77.0,72.0,84,30.01,8.0,WSW,8.1,-,N/A,,Clear,250,2013-09-12 05:53:00
2:53 AM,75.9,72.0,87,30.00,8.0,WSW,6.9,-,N/A,,Clear,240,2013-09-12 06:53:00
3:53 AM,75.9,71.1,85,29.98,8.0,WSW,6.9,-,N/A,,Clear,250,2013-09-12 07:53:00
4:53 AM,75.0,71.1,87,29.98,8.0,West,5.8,-,N/A,,Clear,260,2013-09-12 08:53:00
5:53 AM,73.9,71.1,91,29.98,6.0,West,4.6,-,N/A,,Partly Cloudy,260,2013-09-12 09:53:00
6:53 AM,73.0,71.1,93,29.99,6.0,West,5.8,-,N/A,,Partly Cloudy,260,2013-09-12 10:53:00
7:53 AM,72.0,70.0,93,30.00,4.0,WNW,4.6,-,N/A,,Partly Cloudy,290,2013-09-12 11:53:00
8:13 AM,73.4,71.6,94,30.03,2.0,West,6.9,-,0.02,Rain,Light Rain,280,2013-09-12 12:13:00
8:24 AM,73.4,71.6,94,30.03,4.0,Variable,5.8,-,0.02,Rain,Light Rain,0,2013-09-12 12:24:00
8:51 AM,71.6,69.8,94,30.04,1.5,Variable,3.5,-,0.06,Rain,Rain,0,2013-09-12 12:51:00
8:53 AM,72.0,70.0,93,30.02,1.2,Variable,3.5,-,0.08,Rain,Heavy Rain,0,2013-09-12 12:53:00
9:08 AM,71.6,69.8,94,30.04,2.5,NNW,4.6,-,0.03,Rain,Rain,340,2013-09-12 13:08:00
9:24 AM,71.6,69.8,94,30.04,3.0,Variable,3.5,-,0.06,Rain,Light Rain,0,2013-09-12 13:24:00
9:31 AM,71.6,69.8,94,30.04,1.8,North,5.8,-,0.13,Rain,Heavy Rain,350,2013-09-12 13:31:00
9:43 AM,71.6,69.8,94,30.05,3.0,NNW,4.6,-,0.15,Rain,Light Rain,330,2013-09-12 13:43:00
9:53 AM,71.1,69.1,93,30.02,4.0,NNW,3.5,-,0.17,Rain,Rain,340,2013-09-12 13:53:00
10:02 AM,71.6,69.8,94,30.06,2.5,WNW,3.5,-,0.01,Rain,Light Rain,290,2013-09-12 14:02:00
10:10 AM,71.6,69.8,94,30.06,5.0,WNW,3.5,-,0.02,Rain,Light Rain,300,2013-09-12 14:10:00
10:24 AM,71.6,69.8,94,30.07,3.0,WNW,3.5,-,0.04,Rain,Light Rain,300,2013-09-12 14:24:00
10:53 AM,70.0,66.0,87,30.03,8.0,Calm,Calm,-,0.07,Rain,Light Rain,0,2013-09-12 14:53:00
11:53 AM,72.0,69.1,91,30.03,10.0,Variable,5.8,-,0.00,,Overcast,0,2013-09-12 15:53:00
12:44 PM,73.4,69.8,88,30.04,10.0,WNW,6.9,-,0.00,,Partly Cloudy,290,2013-09-12 16:44:00
12:53 PM,73.9,69.1,85,30.01,10.0,Variable,4.6,-,0.00,,Scattered Clouds,0,2013-09-12 16:53:00
1:53 PM,73.9,69.1,85,29.99,10.0,Variable,3.5,-,N/A,,Scattered Clouds,0,2013-09-12 17:53:00
2:53 PM,75.9,66.0,71,29.98,10.0,West,8.1,-,N/A,,Clear,260,2013-09-12 18:53:00
3:53 PM,78.1,64.9,64,29.96,10.0,WNW,9.2,-,N/A,,Clear,290,2013-09-12 19:53:00
4:53 PM,79.0,64.9,62,29.93,10.0,West,8.1,-,N/A,,Clear,270,2013-09-12 20:53:00
5:53 PM,80.1,64.0,58,29.92,10.0,WNW,6.9,-,N/A,,Clear,290,2013-09-12 21:53:00
6:53 PM,78.1,64.0,62,29.91,10.0,West,4.6,-,N/A,,Clear,260,2013-09-12 22:53:00
7:53 PM,73.9,64.9,73,29.91,10.0,WSW,4.6,-,N/A,,Scattered Clouds,240,2013-09-12 23:53:00
8:53 PM,73.0,64.0,73,29.93,10.0,NW,3.5,-,N/A,,Mostly Cloudy,320,2013-09-13 00:53:00
9:53 PM,72.0,53.1,51,29.96,10.0,Variable,3.5,-,N/A,,Clear,0,2013-09-13 01:53:00
10:53 PM,69.1,52.0,54,29.97,10.0,North,9.2,-,N/A,,Clear,350,2013-09-13 02:53:00
11:53 PM,66.0,55.0,68,29.99,10.0,North,8.1,-,N/A,,Clear,360,2013-09-13 03:53:00